• In Austria
  • List of Countries
  • For 7 days
  • Water Temperature
  • Satellite Maps
  • Weather Map
  • News
  • Weather Widgets
  • user-avatar
    Login

    Hourly Weather Kwitajny

    Today, 20 September, Thursday

    Time Temperature Precipitation Wind Pressure Humidity
    00:00 +18°C° 0 mm 2 mps 755 mmHg 83%
    01:00 +17°C° 0 mm 2 mps 755 mmHg 82%
    02:00 +18°C° 0 mm 2 mps 755 mmHg 80%
    03:00 +18°C° 0 mm 3 mps 755 mmHg 77%
    04:00 +18°C° 0 mm 3 mps 755 mmHg 75%
    05:00 +18°C° 0 mm 3 mps 755 mmHg 73%
    06:00 +19°C° 0 mm 3 mps 755 mmHg 72%
    07:00 +20°C° 0 mm 3 mps 755 mmHg 70%
    08:00 +21°C° 0 mm 4 mps 755 mmHg 66%
    09:00 +23°C° 0 mm 4 mps 755 mmHg 62%
    10:00 +26°C° 0 mm 4 mps 755 mmHg 58%
    11:00 +27°C° 0 mm 4 mps 755 mmHg 55%
    12:00 +28°C° 0 mm 4 mps 755 mmHg 52%
    13:00 +29°C° 0 mm 4 mps 755 mmHg 50%
    14:00 +28°C° 0 mm 4 mps 755 mmHg 52%
    15:00 +28°C° 0 mm 3 mps 754 mmHg 54%
    16:00 +28°C° 0 mm 3 mps 754 mmHg 56%
    17:00 +26°C° 0 mm 2 mps 754 mmHg 61%
    18:00 +24°C° 0 mm 2 mps 754 mmHg 66%
    19:00 +21°C° 0 mm 2 mps 754 mmHg 71%
    20:00 +21°C° 0 mm 2 mps 754 mmHg 73%
    21:00 +20°C° 0 mm 2 mps 754 mmHg 74%
    22:00 +20°C° 0 mm 2 mps 754 mmHg 76%
    23:00 +20°C° 0 mm 2 mps 753 mmHg 76%

    Tomorrow, 21 September, Friday

    Time Temperature Precipitation Wind Pressure Humidity
    00:00 +20°C° 0 mm 3 mps 753 mmHg 76%
    01:00 +19°C° 0 mm 3 mps 753 mmHg 76%
    02:00 +19°C° 0 mm 4 mps 753 mmHg 75%
    03:00 +19°C° 0 mm 4 mps 753 mmHg 75%
    04:00 +19°C° 0 mm 4 mps 752 mmHg 74%
    05:00 +19°C° 0 mm 4 mps 752 mmHg 72%
    06:00 +20°C° 0 mm 5 mps 752 mmHg 71%
    07:00 +20°C° 0 mm 5 mps 752 mmHg 69%
    08:00 +22°C° 0 mm 6 mps 751 mmHg 62%
    09:00 +24°C° 0 mm 7 mps 751 mmHg 54%
    10:00 +26°C° 0 mm 7 mps 751 mmHg 47%
    11:00 +27°C° 0 mm 8 mps 750 mmHg 45%
    12:00 +27°C° 0 mm 8 mps 750 mmHg 44%
    13:00 +28°C° 0 mm 8 mps 749 mmHg 42%
    14:00 +27°C° 0 mm 8 mps 748 mmHg 44%
    15:00 +27°C° 0 mm 7 mps 747 mmHg 45%
    16:00 +27°C° 0 mm 7 mps 746 mmHg 47%
    17:00 +26°C° 0 mm 7 mps 746 mmHg 48%
    18:00 +24°C° 0 mm 7 mps 746 mmHg 48%
    19:00 +23°C° 0 mm 7 mps 746 mmHg 49%
    20:00 +21°C° 0.4 mm 7 mps 747 mmHg 58%
    21:00 +17°C° 0.4 mm 7 mps 747 mmHg 66%
    22:00 +14°C° 0.4 mm 7 mps 748 mmHg 75%
    23:00 +12°C° 0.4 mm 7 mps 749 mmHg 77%

    Day after tomorrow, 22 September, Saturday

    Time Temperature Precipitation Wind Pressure Humidity
    00:00 +13°C° 0.4 mm 6 mps 749 mmHg 78%
    01:00 +12°C° 0.4 mm 5 mps 750 mmHg 80%
    02:00 +12°C° 0 mm 5 mps 750 mmHg 79%
    03:00 +12°C° 0 mm 5 mps 750 mmHg 78%
    04:00 +12°C° 0 mm 5 mps 751 mmHg 77%
    05:00 +11°C° 0 mm 6 mps 751 mmHg 74%
    06:00 +11°C° 0 mm 6 mps 751 mmHg 71%
    07:00 +11°C° 0 mm 7 mps 751 mmHg 68%
    08:00 +12°C° 0 mm 7 mps 751 mmHg 64%
    09:00 +13°C° 0 mm 8 mps 752 mmHg 59%
    10:00 +15°C° 0 mm 8 mps 752 mmHg 55%
    11:00 +15°C° 0.1 mm 7 mps 752 mmHg 54%
    12:00 +16°C° 0.1 mm 7 mps 752 mmHg 53%
    13:00 +16°C° 0.1 mm 7 mps 752 mmHg 52%
    14:00 +16°C° 0.2 mm 6 mps 752 mmHg 54%
    15:00 +16°C° 0.2 mm 6 mps 752 mmHg 55%
    16:00 +15°C° 0.2 mm 5 mps 751 mmHg 56%
    17:00 +14°C° 0.3 mm 5 mps 752 mmHg 62%
    18:00 +13°C° 0.3 mm 5 mps 752 mmHg 68%
    19:00 +12°C° 0.3 mm 5 mps 752 mmHg 73%
    20:00 +10°C° 0 mm 5 mps 752 mmHg 74%
    21:00 +10°C° 0 mm 5 mps 752 mmHg 75%
    22:00 +9°C° 0 mm 6 mps 752 mmHg 76%
    23:00 +9°C° 0 mm 6 mps 752 mmHg 76%

    23 September, Sunday

    Time Temperature Precipitation Wind Pressure Humidity
    00:00 +9°C° 0 mm 6 mps 752 mmHg 76%
    01:00 +9°C° 0 mm 6 mps 752 mmHg 75%
    02:00 +8°C° 0 mm 6 mps 752 mmHg 75%
    03:00 +8°C° 0 mm 6 mps 752 mmHg 76%
    04:00 +8°C° 0 mm 6 mps 752 mmHg 76%
    05:00 +8°C° 0 mm 7 mps 752 mmHg 75%
    06:00 +8°C° 0 mm 7 mps 752 mmHg 75%
    07:00 +9°C° 0 mm 7 mps 752 mmHg 75%
    08:00 +10°C° 0 mm 7 mps 752 mmHg 70%
    09:00 +11°C° 0 mm 7 mps 752 mmHg 65%
    10:00 +12°C° 0 mm 7 mps 752 mmHg 60%
    11:00 +14°C° 0.1 mm 7 mps 752 mmHg 56%
    12:00 +15°C° 0.1 mm 7 mps 752 mmHg 52%
    13:00 +15°C° 0.1 mm 6 mps 752 mmHg 48%
    14:00 +15°C° 0 mm 5 mps 751 mmHg 50%
    15:00 +15°C° 0 mm 4 mps 751 mmHg 51%
    16:00 +16°C° 0 mm 3 mps 750 mmHg 52%
    17:00 +14°C° 0 mm 3 mps 750 mmHg 54%
    18:00 +13°C° 0 mm 3 mps 749 mmHg 55%
    19:00 +12°C° 0 mm 3 mps 748 mmHg 57%
    20:00 +11°C° 0.2 mm 3 mps 747 mmHg 61%
    21:00 +11°C° 0.2 mm 4 mps 746 mmHg 66%
    22:00 +10°C° 0.2 mm 5 mps 745 mmHg 70%
    23:00 +10°C° 1.8 mm 6 mps 743 mmHg 76%

    24 September, Monday

    Time Temperature Precipitation Wind Pressure Humidity
    00:00 +9°C° 1.8 mm 7 mps 742 mmHg 83%
    01:00 +9°C° 1.8 mm 8 mps 740 mmHg 89%
    02:00 +10°C° 2.6 mm 8 mps 738 mmHg 90%
    03:00 +10°C° 2.6 mm 8 mps 736 mmHg 91%
    04:00 +11°C° 2.6 mm 8 mps 734 mmHg 92%
    05:00 +11°C° 2.3 mm 8 mps 733 mmHg 90%
    06:00 +12°C° 2.3 mm 7 mps 732 mmHg 87%
    07:00 +14°C° 2.3 mm 7 mps 731 mmHg 85%
    08:00 +12°C° 0.1 mm 7 mps 730 mmHg 84%
    09:00 +12°C° 0.1 mm 7 mps 730 mmHg 83%
    10:00 +12°C° 0.1 mm 8 mps 729 mmHg 81%
    11:00 +12°C° 0.2 mm 7 mps 730 mmHg 80%
    12:00 +12°C° 0.2 mm 7 mps 730 mmHg 79%
    13:00 +14°C° 0.2 mm 6 mps 730 mmHg 78%
    14:00 +12°C° 0.4 mm 9 mps 731 mmHg 79%
    15:00 +11°C° 0.4 mm 11 mps 732 mmHg 81%
    16:00 +9°C° 0.4 mm 14 mps 734 mmHg 82%
    17:00 +9°C° 0.7 mm 14 mps 736 mmHg 81%
    18:00 +9°C° 0.7 mm 14 mps 737 mmHg 79%
    19:00 +8°C° 0.7 mm 14 mps 739 mmHg 78%
    20:00 +8°C° 0.6 mm 14 mps 741 mmHg 77%
    21:00 +8°C° 0.6 mm 13 mps 743 mmHg 77%
    22:00 +8°C° 0.6 mm 13 mps 744 mmHg 76%
    23:00 +8°C° 0.3 mm 12 mps 745 mmHg 75%

    25 September, Tuesday

    Time Temperature Precipitation Wind Pressure Humidity
    00:00 +7°C° 0.3 mm 11 mps 746 mmHg 75%
    01:00 +7°C° 0.3 mm 10 mps 747 mmHg 74%
    02:00 +7°C° 0.2 mm 9 mps 748 mmHg 74%
    03:00 +6°C° 0.2 mm 9 mps 749 mmHg 73%
    04:00 +6°C° 0.2 mm 8 mps 749 mmHg 73%
    05:00 +6°C° 0.2 mm 8 mps 750 mmHg 72%
    06:00 +6°C° 0.2 mm 8 mps 751 mmHg 70%
    07:00 +6°C° 0.2 mm 8 mps 752 mmHg 69%
    08:00 +7°C° 0.4 mm 9 mps 752 mmHg 66%
    09:00 +8°C° 0.4 mm 10 mps 753 mmHg 62%
    10:00 +8°C° 0.4 mm 10 mps 754 mmHg 59%
    11:00 +9°C° 0.3 mm 10 mps 754 mmHg 57%
    12:00 +9°C° 0.3 mm 10 mps 755 mmHg 55%
    13:00 +9°C° 0.3 mm 10 mps 755 mmHg 53%
    14:00 +9°C° 0.1 mm 10 mps 756 mmHg 53%
    15:00 +8°C° 0.1 mm 9 mps 756 mmHg 54%
    16:00 +9°C° 0.1 mm 8 mps 757 mmHg 54%
    17:00 +8°C° 0 mm 7 mps 757 mmHg 56%
    18:00 +7°C° 0 mm 6 mps 758 mmHg 58%
    19:00 +6°C° 0 mm 5 mps 758 mmHg 59%
    20:00 +6°C° 0 mm 5 mps 758 mmHg 61%
    21:00 +6°C° 0 mm 5 mps 759 mmHg 62%
    22:00 +6°C° 0 mm 4 mps 759 mmHg 64%
    23:00 +5°C° 0 mm 4 mps 759 mmHg 67%
    Show more